Location: Bad Salzschlirf
(50.3750°N, 9.3000°E)
Time: 11:27:59
(UTC+01:00)

ISS - Pass Details

Date: 11 January 2019
Orbit: 404 x 407 km, 51.6° (Epoch: 16 January)

Event Time Altitude Azimuth Distance (km) Brightness Sun altitude
Exits shadow 05:53:33 21° 169° (S) 961 -1.8 -22.4°
Drops below altitude 10° 05:55:05 10° 149° (SSE) 1,464 -0.5 -22.2°
Sets 05:57:18 0° 138° (SE) 2,320 0.8 -21.9°
